Regional Weather Roundup
Issued by NWS Charleston, SC

Current Version | Previous Version | Graphics & Text | Print | Product List | Glossary On
Versions: 1 2 3 4 5 6 7 8 9 10 11 12 13 14 15 16 17 18 19 20 21 22 23 24 25 26 27 28 29 30 31 32 33 34 35 36 37 38 39 40 41 42 43 44 45 46 47 48 49 50
000
ASUS42 KCHS 260527
RWRCHS

REGIONAL WEATHER ROUNDUP
NATIONAL WEATHER SERVICE CHARLESTON SC
100 AM EDT TUE MAY 26 2015

NOTE: "FAIR" INDICATES FEW OR NO CLOUDS BELOW 12,000 FEET WITH NO
SIGNIFICANT WEATHER AND/OR OBSTRUCTIONS TO VISIBILITY.

NOT ALL STATIONS ARE QUALITY CONTROLLED BY THE NATIONAL
WEATHER SERVICE. USE DATA WITH CAUTION...ESPECIALLY
DEWPOINT OBSERVATIONS.

SCZ027-030-031-034>040-042>050-260600-
...SOUTHEAST SOUTH CAROLINA...

CITY           SKY/WX    TMP DP  RH WIND       PRES   REMARKS
N CHARLESTON   PTCLDY    72  68  87 CALM      30.25F
WATERFRONT PAR   N/A     75  72  90 E13       30.23S
MOUNT PLEASANT LGT RAIN  73  72  94 CALM      30.25F
JOHNS ISLAND   CLEAR     73  72  94 E7        30.25F
PINOPOLIS        N/A     72  68  88 VRB3      30.17F
MONCKS CORNER  FAIR      70  66  88 CALM      30.26S
SUMMERVILLE    FAIR      68  68 100 CALM      30.26F
BEAUFORT MCAS  PTCLDY    73  70  90 SE3       30.25S
BEAUFORT ARPT  FAIR      72  72 100 CALM      30.24F
HILTON HEAD IS PTCLDY    75  72  88 E6        30.25F
WALTERBORO     FAIR      66  64  94 CALM      30.25F
ALLENDALE        N/A     72  68  88 CALM      30.24F

...SOUTHERN MIDLANDS AND PEE DEE...

CITY           SKY/WX    TMP DP  RH WIND       PRES   REMARKS
GEORGETOWN     NOT AVBL
KINGSTREE      NOT AVBL
ORANGEBURG     MOCLDY    69  65  86 CALM      30.27S
BARNWELL       FAIR      72  70  94 E6        30.26F
AIKEN          FAIR      70  63  78 SE7       30.28F
MANNING        FAIR      64  32  29 CALM      30.27S
COLUMBIA       MOCLDY    73  65  75 SE5       30.26S
SUMTER         NOT AVBL
FLORENCE       CLEAR     67  64  90 CALM      30.27S
MYRTLE BEACH   CLEAR     73  66  78 SE13      30.28F
N MYRTLE BEACH CLEAR     74  67  78 SE8       30.27F

$$

GAZ063-065-086>088-099>101-113>116-118-119-134>141-150-260600-
...SOUTHEAST GEORGIA...

CITY           SKY/WX    TMP DP  RH WIND       PRES   REMARKS
SAVANNAH ARPT  MOCLDY    73  70  88 SE7       30.24S
HUNTER AAF     CLEAR     74  73  96 E6        30.21F
FORT STEWART   NOT AVBL
STATESBORO     MOCLDY    71  32  24 CALM      30.24F
SYLVANIA       PTCLDY    71  71  99 CALM      30.25F
CLAXTON        FAIR      70  68  94 CALM      30.23F

...CSRA...CENTRAL AND FAR SOUTHEAST GEORGIA...

CITY           SKY/WX    TMP DP  RH WIND       PRES   REMARKS
THOMSON        MOCLDY    74  70  86 SE3       30.28S
AUGUSTA-BUSH   PTCLDY    71  68  90 SE8       30.24S
AUGUSTA-DANIEL MOCLDY    73  67  81 SE7       30.25F
SWAINSBORO     FAIR      73  72  94 SE8       30.23F
VIDALIA        PTCLDY    72  70  94 SE3       30.23S
EASTMAN        FAIR      72  72 100 SE6       30.23F
HAZLEHURST     FAIR      74  73  95 SE7       30.20F
ALMA           PTCLDY    73  70  90 E5        30.22S
WAYCROSS       PTCLDY    74  73  95 E3        30.21F
JESUP          FAIR      73  72  94 CALM      30.22F
BAXLEY         CLOUDY    73  72  94 SE3       30.22S
BRUNSWICK      PTCLDY    75  72  88 E6        30.21F
SAINT SIMONS   NOT AVBL

$$

SCZ027-028-034-036>038-045-046-048>050-GAZ119-141-260600-
...LAKE AND SUPPLEMENTAL COASTAL OBSERVATIONS...

STATION/POSITION TIME  TEMP    WIND        PRES    WAVE   SWELL
                       AIR SEA DIR/SP/G            HT/PER HT/PER/DIR
                 (UTC) (F)     (DEG/KT/KT) (MB)    (FT/S) (FT/S/D)
UPR LAKE MARION  NOT AVBL
WINYAH BAY       0400   74     120/  6     1024.0F
LAKE MURRAY      0500   74     140/ 11/ 15 1023.7F
ACE BASIN NERRS  NOT AVBL
FORT PULASKI     0500   76 78  100/  9/ 13 1024.2F
SAPELO ISLAND    0500   75     100/  6     1023.0F

$$

ANZ835-935-AMZ111-154-330-350-352-354-370-450-454-472-260600-
...C-MAN AND BUOY OBSERVATIONS...

STATION/POSITION TIME  TEMP    WIND        PRES    WAVE   SWELL
                       AIR SEA DIR/SP/G            HT/PER HT/PER/DIR
                 (UTC) (F)     (DEG/KT/KT) (MB)    (FT/S) (FT/S/D)
BUOY 41004       0450   75 75   90/  6/  8 1024.0F   3/ 6   3/ 6
BUOY 41008       0450   76 76  110/  8/ 10 1023.8F   3/ 7   3/ 90/ 7
FOLLY BEACH CMAN 0500   75     100/ 11/ 11 1024.3F
CAPERS NEARSHORE 0408   75     110/ 12/ 16 1024.8F
FRIPP NEARSHORE  0400   76     110/ 12/ 16 1023.7F


STATION/POSITION TIME  TEMP    WIND        PRES    WAVE   SWELL
                       AIR SEA DIR/SP/G            HT/PER HT/PER/DIR
                 (UTC) (F)     (DEG/KT/KT) (MB)    (FT/S) (FT/S/D)
5E ST. MARYS GA  0421      79                N/A     3/ 8
FRYING PAN BUOY  0450   76 74  130/ 10/ 12 1026.3F   3/ 6   3/130/ 6
BUOY 41025       0450   74 76  170/ 14/ 16 1026.6F   3/ 6   2/ 90/ 8
CAPE LOOKOUT NC  0500   74     160/ 12/ 13 1026.0F
BUOY 41002       0450   74 74  130/ 14/ 16 1026.9R   4/ 6   2/ 90/ 6
BUOY 41010       0420   79 81  110/ 14/ 17 1023.8F
ST AUGUSTINE FL  0500   78 79  140/ 12/ 13 1023.6F


$$



USA.gov is the U.S. government's official web portal to all federal, state and local government web resources and services.